Theta_e
331 329 331 331 328 328 328 329 330 331 332 329 328 328 326 324 326 326 325 323 322 321 320 319 313 302 296 296 297 298 297 297 297 297 297 297 297 298 298 298 299 298 299 299 297 307 319 319 319 321 320 320 319 319 319 318 317 318 318 318 318 317 316 316 315 316 317 317 318 318 317 317 316 317 319 319 320 320 320 320 321 322 321 321 322
331 330 331 332 330 329 329 329 329 330 330 329 329 327 325 325 327 327 325 323 322 322 320 319 318 310 301 297 297 298 297 297 296 296 296 296 296 297 298 298 298 299 298 299 297 301 313 321 321 320 320 320 319 319 319 318 318 318 318 317 316 316 316 316 315 315 316 316 316 316 315 316 316 317 318 318 318 319 319 319 320 321 321 322 323
330 330 329 330 329 327 329 330 329 328 328 329 329 327 327 328 327 326 325 324 322 321 321 319 318 316 310 302 297 298 298 298 297 296 296 295 296 296 297 297 297 298 298 298 298 298 307 317 321 321 320 320 320 320 319 318 318 318 318 317 317 316 315 315 315 314 315 315 315 315 315 315 316 316 316 316 316 317 317 318 319 320 321 321 322
330 330 328 328 327 326 328 329 326 327 329 329 328 327 328 328 326 326 324 323 323 321 320 319 318 317 315 309 301 298 298 298 298 297 296 295 295 295 296 297 297 297 298 297 298 298 301 308 316 320 320 320 320 320 320 319 318 318 318 318 317 316 315 315 314 314 315 315 315 314 314 314 315 315 315 315 315 315 316 316 317 318 318 319 319
330 330 329 328 327 328 328 328 326 328 330 329 328 328 328 328 327 325 324 323 323 322 320 319 318 317 315 313 308 303 300 299 298 298 297 296 295 295 295 296 297 297 298 298 297 298 299 301 308 315 318 319 318 318 320 320 319 318 317 317 317 316 315 315 314 313 314 315 315 314 314 314 314 315 314 314 314 314 315 315 315 315 316 317 317
330 330 329 328 328 328 328 328 328 329 328 328 328 328 327 327 326 325 324 323 323 321 320 318 317 316 315 314 313 311 308 303 300 298 298 297 295 295 295 295 296 297 297 298 297 297 298 299 303 307 312 315 316 316 317 320 320 319 318 317 317 317 316 315 315 314 314 314 314 314 314 314 314 314 314 314 313 313 314 314 314 314 314 315 315
330 330 329 328 328 328 328 328 327 327 327 327 328 328 327 327 326 325 324 323 322 321 319 318 316 315 314 313 313 312 310 307 302 299 298 297 296 295 295 295 295 296 297 297 297 297 298 299 300 304 308 310 311 314 315 318 320 320 320 317 316 317 316 316 315 314 314 314 314 314 314 314 314 314 314 313 313 313 313 313 312 313 313 313 314
326 327 327 327 327 328 328 327 328 328 327 326 326 326 326 326 325 324 323 323 322 320 318 317 316 315 314 313 312 310 308 306 303 300 298 297 296 296 295 295 295 295 296 297 297 297 297 298 299 301 304 306 307 310 312 314 317 319 319 318 316 316 317 317 316 315 314 314 314 314 314 313 313 314 313 313 313 312 312 312 312 312 312 313 313
322 322 323 323 324 325 325 325 326 327 326 324 323 322 322 322 322 322 322 321 320 319 317 317 316 315 314 313 312 311 308 307 304 302 300 297 296 296 296 295 295 295 295 296 296 297 297 297 298 299 301 303 304 306 308 309 312 315 316 318 318 317 317 316 316 316 314 313 314 314 313 313 313 313 312 312 312 312 311 311 311 311 311 312 312
321 321 320 319 320 320 320 321 322 323 323 322 321 320 320 319 319 319 319 319 319 318 316 316 315 314 314 313 312 310 309 307 305 303 301 299 297 296 296 296 295 295 295 296 296 296 297 296 297 298 299 300 301 303 305 305 308 311 314 317 318 317 317 316 315 315 314 313 314 314 313 312 312 312 312 312 311 311 310 310 310 310 310 311 311
317 318 318 317 317 317 317 317 317 317 318 318 318 318 318 318 318 317 317 317 316 316 316 315 314 313 313 312 310 308 307 305 304 303 301 300 298 297 297 297 296 296 295 295 296 296 296 296 296 297 297 298 300 301 303 303 303 307 312 315 316 317 316 315 315 315 313 312 312 313 313 312 312 311 311 311 311 310 309 309 309 309 310 310 310
313 314 314 314 314 314 314 314 314 314 315 315 314 315 315 315 316 316 316 315 315 314 314 313 311 311 311 310 308 306 305 304 302 302 302 301 300 298 297 297 297 296 296 295 295 296 296 296 296 296 297 297 298 299 300 301 301 304 310 313 314 315 316 315 315 315 314 312 311 311 312 312 312 311 310 310 310 310 309 308 308 309 309 309 310
310 310 311 311 311 312 312 313 313 313 313 311 310 311 311 311 311 312 312 312 312 311 310 309 307 306 306 305 305 305 304 303 303 304 304 302 299 298 298 297 297 297 296 296 295 295 295 295 295 296 296 296 297 298 298 299 299 301 307 312 313 314 314 315 315 315 314 312 311 311 311 311 311 311 310 309 309 309 309 308 308 308 309 309 310
306 306 308 308 308 309 309 309 310 310 310 309 308 309 308 308 307 307 308 308 307 307 306 305 303 301 299 299 302 303 303 303 304 303 301 299 299 298 297 297 297 297 296 296 296 296 295 295 295 295 296 296 296 296 296 297 297 299 302 307 311 313 313 314 315 315 315 314 312 311 311 311 311 311 309 309 308 308 308 308 308 308 308 309 309
301 302 303 303 304 304 304 305 305 306 306 306 306 306 305 305 304 304 304 304 304 304 303 303 301 299 298 298 299 299 301 302 300 300 300 301 301 298 296 297 297 297 297 296 296 296 296 296 295 295 295 296 296 296 296 296 296 296 297 299 304 310 312 312 314 315 315 315 314 312 311 311 311 310 309 308 308 308 308 308 308 308 308 309 309
299 299 300 300 300 301 301 301 301 302 303 303 303 302 302 302 301 301 300 300 301 301 301 301 300 300 299 299 297 296 302 301 296 298 302 302 301 298 298 299 299 297 296 296 296 296 296 296 296 296 296 296 296 296 296 296 295 295 296 295 297 304 310 311 311 314 315 315 315 313 312 310 309 309 308 307 307 307 307 307 307 307 308 308 308
298 298 298 299 298 299 299 299 299 299 300 300 299 299 299 300 300 300 299 298 298 298 299 298 298 298 298 298 298 299 301 298 294 298 300 299 299 299 299 299 297 297 297 297 297 297 296 296 296 296 296 296 296 296 295 295 295 295 295 295 294 298 306 310 310 310 311 311 314 315 313 310 309 308 307 307 307 307 307 306 306 307 307 308 308
297 298 298 298 298 298 298 298 298 297 297 298 297 297 297 298 298 299 299 298 298 297 297 297 297 297 296 296 297 298 297 295 295 297 297 296 297 298 298 298 297 298 297 297 297 297 297 296 296 296 296 296 296 296 296 295 295 295 295 295 295 294 298 305 308 310 308 307 310 314 314 312 310 309 308 307 307 307 306 306 306 306 307 307 308
295 295 295 295 296 296 296 296 296 295 296 296 295 295 295 295 296 297 297 297 298 298 296 297 298 297 296 296 295 295 294 294 295 295 295 296 296 296 296 297 297 297 296 297 296 297 297 296 296 296 296 296 296 296 296 296 295 295 295 295 295 294 294 296 300 304 306 306 306 310 313 314 312 310 309 308 307 307 306 306 306 306 306 307 307
290 290 290 290 291 291 291 292 292 293 293 293 294 294 294 294 295 295 295 296 296 296 295 296 296 296 297 297 296 295 295 294 294 294 294 294 294 295 295 295 295 295 295 296 296 296 296 296 296 296 296 296 296 296 296 296 296 295 296 295 295 295 294 293 294 295 297 300 301 305 311 313 313 312 310 308 307 306 306 306 306 305 306 307 307
287 287 287 287 287 287 287 287 288 288 289 290 290 291 291 292 292 293 294 294 294 295 295 294 294 295 295 296 296 296 296 295 294 293 293 293 293 294 293 293 294 294 294 295 295 296 295 295 296 295 296 296 296 296 296 296 296 296 296 296 295 294 294 294 293 293 292 294 297 302 307 312 312 312 311 310 308 307 306 305 306 305 305 306 306
286 286 286 286 286 286 286 286 286 286 286 286 287 287 287 288 289 289 290 290 291 292 292 293 293 293 293 293 294 294 294 294 294 293 292 292 292 292 292 292 293 293 294 294 294 295 295 295 295 295 295 296 296 296 296 296 296 296 296 296 296 295 294 294 293 293 292 292 295 298 304 309 311 311 312 311 309 308 307 306 306 305 304 305 306
286 286 286 286 286 286 286 285 286 286 286 286 285 285 285 286 286 286 286 286 287 287 288 289 289 290 291 292 292 292 292 292 292 292 292 291 292 292 292 292 292 293 294 294 294 294 295 295 295 295 295 295 296 296 296 296 296 296 296 296 296 295 295 294 293 293 293 292 292 294 297 304 310 310 310 311 310 309 308 307 306 305 305 304 305
285 285 285 285 285 285 285 285 285 285 285 285 285 285 285 285 285 285 285 285 285 285 285 285 286 287 288 289 290 290 291 291 292 292 291 291 291 290 291 292 292 292 293 294 294 294 295 295 295 295 295 295 296 296 296 295 296 296 296 295 296 296 295 295 294 293 293 292 292 291 292 297 306 310 309 310 310 309 308 307 306 305 305 305 305
285 285 285 285 285 285 285 285 285 285 285 285 285 285 285 285 285 285 285 285 285 285 285 285 285 285 285 285 286 286 287 289 290 291 291 291 290 289 290 291 290 291 292 292 293 293 293 294 294 295 295 295 295 295 295 295 295 295 295 295 295 295 295 295 295 294 293 292 291 291 291 292 298 306 309 309 308 308 308 307 306 306 305 305 305
285 285 285 285 285 284 284 284 284 284 284 284 284 284 284 284 284 284 284 284 284 284 284 284 284 284 284 285 285 285 285 286 286 287 289 290 290 289 289 289 289 289 290 291 292 292 293 293 293 294 294 294 294 294 294 294 295 295 295 295 295 295 296 295 295 295 294 293 292 291 291 291 292 297 304 308 308 308 308 308 307 306 305 305 305
284 284 284 284 284 284 284 284 284 284 284 284 284 284 284 284 284 283 283 284 283 283 284 284 284 284 284 284 284 284 284 284 284 285 286 287 288 289 288 288 289 289 289 290 291 291 292 293 293 293 293 293 294 294 294 294 294 294 294 294 295 295 295 295 295 295 294 294 293 292 291 290 290 291 297 305 308 308 307 308 308 307 306 305 305
284 284 284 284 284 284 283 283 283 283 283 284 284 284 284 284 284 284 283 283 283 283 283 283 283 283 283 283 283 283 283 283 284 284 284 285 286 287 288 288 288 289 289 289 289 290 291 292 292 292 292 293 293 293 294 294 294 294 294 294 294 294 294 295 295 295 294 294 294 293 291 290 290 289 293 303 308 307 308 308 307 308 307 305 305
283 283 283 283 283 283 283 283 283 283 283 283 283 283 283 283 283 283 283 283 283 283 283 283 283 283 283 283 282 283 283 283 283 283 283 283 284 284 286 287 287 288 288 289 289 289 290 290 291 291 291 292 292 292 293 293 293 293 293 293 293 293 294 294 294 294 294 293 293 293 292 291 290 289 291 300 307 307 307 307 307 306 306 305 304
283 283 283 283 283 283 283 283 283 283 283 282 282 282 282 282 282 282 282 283 283 283 283 283 283 283 283 283 283 282 282 282 282 282 282 282 282 283 284 285 286 287 287 288 288 288 288 289 289 290 290 290 290 291 291 292 292 293 293 293 294 294 294 294 294 293 293 293 293 293 292 291 291 289 289 295 303 306 306 306 306 306 305 305 303
283 283 283 283 283 283 283 282 282 282 282 282 282 282 282 282 282 282 282 282 283 283 283 282 282 282 282 283 283 282 282 283 282 282 282 281 281 282 282 283 285 286 286 286 286 287 287 288 287 287 288 288 288 288 289 289 290 291 292 293 293 294 294 294 294 294 293 293 293 292 293 292 291 291 289 290 297 304 305 305 305 305 304 303 303
283 283 283 283 283 283 282 282 282 282 282 282 282 282 282 282 282 283 283 283 283 283 283 282 282 281 280 280 280 281 281 282 282 282 282 282 281 281 282 282 283 284 285 285 285 286 286 286 286 286 286 286 286 287 287 287 287 288 290 291 292 292 293 293 294 294 293 293 293 292 292 292 291 291 292 291 292 298 303 304 304 304 303 302 302
283 283 282 282 282 282 282 282 282 282 282 282 282 282 282 282 282 282 282 282 282 282 282 282 282 281 281 280 280 279 279 280 280 281 281 281 281 281 281 282 282 283 284 284 284 284 285 285 285 285 285 285 286 286 286 287 287 287 287 289 291 291 292 292 293 293 293 293 293 293 292 292 292 291 292 293 292 294 297 301 302 302 302 302 301
282 282 282 282 282 281 281 281 281 281 281 281 281 281 281 281 281 281 281 281 280 280 281 281 281 280 280 281 280 280 279 279 279 279 279 280 280 281 281 281 282 282 283 284 284 284 284 284 285 285 285 285 285 285 286 286 286 287 287 287 288 290 291 291 292 292 293 292 293 293 292 292 292 291 291 293 293 293 293 294 297 299 300 300 299
282 282 282 281 281 281 281 281 280 280 280 280 280 280 280 279 280 280 279 279 279 279 279 279 279 279 279 279 279 279 279 279 279 279 279 279 279 280 280 281 281 281 282 283 283 283 284 284 284 284 284 285 285 285 285 285 286 286 287 287 287 288 289 290 291 291 291 292 292 292 292 291 291 291 292 292 293 294 294 292 292 295 297 298 297
282 282 281 281 281 280 280 280 280 279 279 279 279 279 278 278 278 278 278 278 277 277 277 277 277 277 277 278 278 278 278 278 278 278 278 278 279 279 279 280 280 281 281 282 282 283 283 283 284 284 284 285 285 285 285 285 285 286 286 286 287 287 288 289 290 291 291 291 291 291 292 291 291 291 291 291 292 294 295 294 293 294 295 295 294
282 281 281 280 280 280 279 279 279 278 278 278 278 277 277 277 277 276 276 276 277 277 277 277 277 277 277 277 277 277 277 277 277 278 278 278 278 278 279 279 279 280 280 281 281 282 282 283 283 283 284 284 284 284 285 285 285 285 285 286 286 287 287 288 289 290 290 291 291 291 291 291 291 291 290 290 291 293 294 294 293 294 294 294 293
282 281 281 281 280 280 279 279 278 278 278 277 277 277 276 276 276 276 276 276 276 276 276 276 276 276 276 276 276 276 276 277 277 277 277 277 277 278 278 278 278 279 280 280 281 281 282 282 282 283 283 283 284 284 284 284 285 285 285 286 286 286 287 287 288 288 289 290 290 291 291 291 291 291 290 290 291 293 295 294 293 294 294 293 292
282 282 281 281 280 280 279 279 279 278 278 277 276 276 276 276 276 275 275 275 275 275 275 275 275 275 275 275 275 275 275 276 276 276 276 277 277 277 278 278 278 279 279 280 280 281 281 282 282 282 282 283 283 283 284 284 285 285 285 285 285 286 286 287 287 287 288 289 290 290 290 290 291 291 291 290 290 292 294 294 294 294 294 293 293
281 281 281 280 280 280 279 279 278 278 277 277 276 276 275 275 275 275 274 275 274 274 274 274 274 274 274 274 274 274 274 274 275 275 276 276 277 277 278 278 278 279 279 279 280 280 281 281 282 282 282 282 283 283 283 284 284 284 285 285 285 285 286 286 286 287 287 288 289 290 290 290 290 290 290 290 289 290 292 293 294 295 294 293 293
281 280 280 280 279 279 279 278 278 277 277 276 275 275 274 274 274 274 274 274 274 274 274 273 273 273 273 273 273 273 274 274 274 275 275 276 276 277 277 277 278 278 278 279 279 280 280 281 282 282 282 282 282 283 283 283 283 284 284 285 285 285 285 286 286 286 287 287 288 288 289 289 289 289 289 290 290 290 290 291 294 294 294 294 294
280 280 279 279 279 278 278 278 277 277 276 275 274 274 273 273 273 273 273 273 273 273 273 272 272 272 272 272 272 272 273 273 273 273 274 274 275 275 276 276 277 277 278 279 279 280 280 281 281 282 282 282 282 283 283 283 283 283 284 284 284 285 285 285 286 286 286 287 287 287 288 289 289 289 288 289 290 290 289 290 292 293 294 294 293
280 280 279 279 278 278 277 277 277 276 275 275 274 273 273 273 272 273 273 273 272 272 272 272 272 272 272 272 271 271 271 271 271 271 272 272 272 273 273 274 275 276 277 277 278 279 279 280 281 281 282 282 283 283 283 283 283 283 284 284 284 284 285 285 285 286 286 287 287 287 288 288 288 288 288 288 289 289 288 289 290 291 293 293 293
280 279 279 278 278 277 277 277 276 276 275 274 273 273 273 272 272 273 273 272 272 272 272 271 271 271 271 271 270 270 269 269 270 270 270 270 270 271 272 272 273 274 275 275 276 276 277 278 278 279 280 281 281 282 283 283 283 283 284 284 284 284 284 285 285 285 286 286 287 287 287 288 288 288 288 288 288 288 288 288 289 289 291 292 293
279 279 278 278 277 277 277 276 276 275 275 274 273 273 272 271 271 272 272 272 272 271 271 271 270 270 270 269 269 269 269 269 269 269 269 269 270 270 271 271 272 273 273 274 274 275 275 276 276 276 277 278 278 280 281 282 282 283 283 284 284 284 284 284 285 285 286 286 286 286 286 287 287 287 287 288 288 288 288 288 288 288 289 291 292
279 278 278 278 277 277 276 276 275 275 274 273 273 272 271 270 271 272 272 271 271 270 270 269 269 269 269 269 268 268 268 268 268 269 269 269 270 270 271 271 271 272 272 273 273 274 274 275 275 275 275 276 276 277 277 278 278 280 281 283 284 284 284 284 285 285 285 286 286 286 286 286 287 286 287 288 288 287 288 288 288 288 288 289 291
278 277 277 277 276 276 275 275 275 274 273 272 272 272 271 270 270 271 271 269 269 269 269 269 269 269 268 268 268 268 268 268 268 269 269 270 270 271 271 271 271 272 272 272 272 273 273 274 275 275 275 275 276 276 277 277 278 279 280 281 282 283 283 284 284 284 285 285 286 286 285 286 286 286 286 287 287 287 288 288 288 288 287 288 290
276 276 276 275 275 275 274 274 274 273 273 272 272 271 270 269 269 270 269 268 268 268 268 268 268 268 268 268 268 268 268 268 269 269 270 271 271 271 271 271 272 272 272 272 273 273 274 275 275 275 276 276 277 277 278 278 279 279 280 281 282 282 282 283 284 284 284 285 285 285 285 286 286 286 286 287 287 287 287 287 287 288 288 287 288
275 275 275 275 274 274 273 273 272 272 272 272 271 271 269 269 269 269 268 268 268 268 268 268 268 268 268 268 268 268 268 268 269 270 271 272 272 272 272 272 273 273 273 273 273 273 274 274 274 275 275 275 276 276 277 278 278 279 279 280 281 282 282 283 284 284 284 284 285 285 285 285 286 286 286 286 286 287 287 287 287 287 288 288 287
275 274 274 274 274 273 273 272 271 271 272 271 271 270 269 269 268 268 268 268 268 268 268 268 269 269 268 268 269 269 269 269 270 271 272 273 273 273 273 274 274 274 273 273 274 274 274 274 274 274 274 275 275 275 276 276 277 277 278 278 279 279 281 282 283 284 285 284 285 285 285 285 285 285 286 286 286 286 286 287 287 287 287 287 287
274 274 274 274 274 273 272 272 271 270 271 271 271 270 270 268 268 269 269 268 268 269 269 269 269 269 269 269 269 270 270 271 271 272 273 274 274 274 274 274 274 274 274 274 274 274 274 274 274 274 274 274 274 275 275 275 275 275 276 276 276 277 278 279 281 283 284 285 285 285 284 284 285 285 285 285 285 285 286 286 286 286 286 286 287
Wind_Speed
16 14 18 18 15 17 19 21 22 21 18 13 14 12 12 17 17 17 17 18 17 17 16 15 14 15 14 13 12 12 12 11 11 10 9 9 8 7 7 7 7 8 8 8 8 7 6 7 6 6 6 6 7 5 5 5 3 4 4 3 4 5 7 7 5 4 5 4 3 4 4 5 4 3 2 2 2 2 3 4 4 4 5 6 6
13 13 15 15 14 17 22 24 21 18 16 12 14 14 16 17 17 16 16 17 17 17 17 16 15 15 15 15 14 13 12 12 11 11 10 10 9 9 8 8 8 8 9 9 9 8 7 7 8 8 7 7 8 7 7 7 6 6 6 5 5 5 6 6 5 4 5 5 4 4 5 5 4 4 3 3 3 4 4 4 4 3 3 3 4
11 11 12 14 15 18 20 19 14 15 17 14 13 16 20 19 16 14 15 17 17 17 17 17 16 16 16 16 16 15 13 12 12 11 11 11 11 10 10 9 9 9 9 9 9 10 8 7 8 8 9 9 8 8 8 8 7 7 7 7 6 6 6 5 5 4 6 7 7 6 6 6 6 5 5 4 5 5 5 4 4 4 3 3 3
7 7 8 11 13 16 17 14 13 18 20 16 12 16 20 18 15 13 16 17 17 18 18 17 17 17 17 17 17 17 15 14 13 12 12 12 12 12 11 11 10 10 9 10 10 11 10 9 9 9 10 11 10 10 9 8 9 8 8 9 8 7 7 7 7 6 6 6 7 7 7 7 6 5 5 5 6 5 6 6 5 4 4 4 4
6 6 6 7 11 16 17 16 16 18 18 16 15 17 19 17 14 13 15 16 17 17 18 18 18 18 18 17 18 18 18 18 16 15 15 14 14 14 13 13 12 11 10 10 10 11 12 11 11 11 12 13 13 13 10 8 10 10 9 10 9 8 9 11 11 8 7 7 7 7 7 6 6 6 6 7 8 7 6 6 6 6 5 5 5
8 7 6 6 10 12 12 12 13 14 14 15 17 19 18 15 14 15 16 16 16 16 18 18 17 17 18 18 19 19 20 20 19 18 18 17 17 16 15 15 13 13 12 11 11 12 12 12 13 13 13 14 15 15 13 10 10 12 13 13 12 10 10 11 10 7 6 8 8 7 7 6 7 7 6 6 7 8 7 6 7 8 7 7 7
11 11 11 11 12 11 10 9 10 12 13 15 17 18 17 15 16 17 17 16 14 14 16 16 17 17 17 18 19 19 19 20 20 20 20 20 19 19 17 16 15 14 14 13 13 13 14 14 14 15 15 15 15 15 15 13 12 13 14 15 15 14 13 13 13 10 8 8 9 8 7 7 8 8 7 7 6 7 7 7 7 7 7 8 9
5 9 11 13 13 14 14 14 13 14 15 15 16 16 16 17 18 17 17 15 14 13 13 14 15 15 15 16 17 17 18 18 19 19 20 21 21 21 19 18 17 16 15 15 15 15 15 15 16 16 17 17 17 16 16 16 14 13 13 13 15 15 14 15 17 13 8 9 9 8 7 8 10 9 7 8 8 7 7 8 8 8 8 8 8
9 7 4 4 6 9 12 13 13 14 15 14 14 15 16 16 16 16 16 14 14 15 14 14 15 15 15 15 16 17 17 18 19 20 21 21 22 22 21 21 20 18 17 16 17 17 17 17 17 18 18 18 18 17 17 17 18 17 14 11 12 14 13 12 12 10 8 9 10 9 9 10 12 11 9 8 7 8 7 8 8 8 9 9 8
14 13 12 10 8 6 6 6 7 9 11 11 12 13 14 14 14 13 13 13 14 14 15 15 16 16 16 16 17 17 18 19 19 20 21 22 23 23 23 23 22 21 20 19 18 18 18 18 18 19 19 19 19 19 18 18 19 19 18 13 10 11 12 9 9 12 12 10 10 11 12 14 14 13 11 9 8 9 8 9 9 9 9 10 9
15 14 14 13 13 12 11 10 9 7 6 6 7 8 9 10 11 10 10 11 13 13 15 15 15 16 17 18 19 19 19 19 20 21 22 23 24 24 24 24 24 24 23 22 21 20 20 20 20 20 20 20 20 20 19 19 19 19 19 17 13 12 12 11 12 16 17 15 14 15 15 16 16 15 13 11 10 11 11 10 11 11 10 10 10
15 14 14 15 15 16 15 15 13 11 10 8 7 7 7 7 8 8 9 10 11 12 12 13 14 15 17 18 18 18 19 19 19 19 20 21 23 25 25 25 25 25 25 24 23 23 23 23 22 21 21 21 21 21 21 20 20 20 19 20 18 15 14 14 14 16 18 17 16 17 16 16 17 15 14 14 14 15 14 13 12 12 11 10 10
13 13 13 14 14 14 14 15 14 13 12 11 11 10 9 9 8 7 8 8 8 9 9 11 11 11 13 15 17 17 16 15 15 16 18 18 19 22 23 25 26 27 27 26 26 26 25 25 25 24 23 23 23 22 22 22 21 21 20 21 21 20 18 16 15 16 17 18 18 18 18 16 15 15 14 14 15 16 15 14 13 12 12 11 11
14 13 13 13 13 13 14 14 13 12 12 11 11 10 10 10 10 10 8 7 8 8 8 8 6 7 9 11 14 13 11 12 13 12 12 13 16 18 20 22 23 24 26 27 28 28 28 27 27 26 25 25 25 24 24 24 23 23 23 22 23 22 21 19 17 17 18 19 19 19 18 15 14 16 16 14 14 15 15 14 13 13 13 13 12
17 16 15 16 16 16 16 15 14 14 12 12 12 11 11 10 10 10 9 9 8 7 9 8 6 8 8 6 5 6 8 8 8 11 15 17 16 13 14 18 20 21 23 25 26 27 28 29 29 29 29 27 26 26 26 26 25 25 25 25 25 24 24 22 20 19 19 19 19 19 17 14 14 16 16 15 15 14 14 14 14 14 14 14 14
20 19 19 19 18 18 17 17 17 16 15 15 15 15 15 13 12 11 10 10 9 8 9 10 9 8 5 3 2 3 4 4 10 19 20 15 12 13 18 22 20 19 19 21 23 24 25 26 27 29 30 30 30 29 28 28 27 27 26 26 26 27 26 25 23 21 20 20 19 19 17 14 13 15 16 16 16 15 15 15 15 15 15 15 14
21 21 21 20 20 19 18 17 17 17 16 17 17 17 16 16 15 14 12 12 11 10 9 11 11 8 5 4 3 2 2 6 13 15 13 12 16 19 20 18 18 19 22 24 26 26 26 25 26 27 28 30 31 31 31 31 30 29 29 28 27 28 28 28 27 25 24 24 22 20 19 16 13 14 17 17 16 16 16 16 15 15 15 15 15
22 22 21 21 20 20 19 18 18 18 17 16 17 17 17 17 16 15 15 13 12 12 13 13 11 9 9 7 6 6 6 9 9 6 12 17 16 16 16 18 23 26 27 27 28 28 28 27 27 26 27 29 30 30 31 32 32 32 31 30 29 28 29 30 31 30 29 28 27 25 22 20 17 16 17 18 17 17 17 17 16 16 16 16 16
25 24 24 23 22 22 22 21 21 21 19 18 19 18 17 17 16 15 15 15 14 15 15 15 12 10 12 10 9 10 10 10 5 4 10 12 11 15 19 21 23 25 26 27 27 28 28 28 28 28 28 29 29 30 30 30 32 32 33 33 32 30 30 31 32 32 33 32 32 32 27 22 21 20 20 19 19 19 19 18 17 16 16 16 16
28 28 27 26 26 26 25 26 26 25 25 24 23 21 19 18 17 16 15 15 16 15 15 16 14 13 13 12 12 12 12 11 9 7 5 6 12 17 18 19 21 22 25 27 28 28 29 29 29 30 30 30 29 30 30 30 31 32 33 33 34 33 32 31 32 32 33 34 34 36 32 27 24 23 23 21 19 21 21 19 18 17 17 17 17
28 28 28 27 27 27 27 27 28 27 27 26 25 23 23 22 20 19 18 17 16 15 15 15 15 14 14 14 13 14 14 12 9 9 6 5 8 11 17 24 24 24 24 25 28 29 30 31 32 31 31 32 32 31 31 32 32 32 32 32 33 34 34 33 33 32 33 33 34 37 36 32 27 23 23 22 20 22 22 19 19 18 18 17 17
26 26 26 26 26 26 26 26 26 26 26 25 25 24 24 23 22 21 20 20 19 18 17 16 15 14 14 14 13 13 12 8 8 12 9 6 6 8 17 21 20 24 25 23 27 30 31 32 32 32 32 32 33 33 33 32 32 32 32 33 32 32 33 34 34 34 33 33 34 36 38 37 33 26 24 24 23 22 22 20 20 19 18 18 18
24 24 24 23 23 23 23 23 23 23 23 23 23 22 21 20 20 20 20 20 19 19 18 17 17 16 15 15 14 12 9 6 8 12 9 7 7 7 14 20 21 27 30 29 31 32 31 31 31 31 32 32 32 33 34 33 33 33 33 34 34 32 31 33 34 34 35 35 34 36 38 39 38 32 27 26 26 25 23 21 21 20 19 19 19
22 22 22 21 21 21 21 21 21 21 21 20 19 19 18 17 17 17 17 17 17 17 17 17 17 17 16 15 15 14 12 10 10 12 11 11 11 8 12 18 18 22 31 35 35 33 30 29 30 30 30 31 31 31 32 33 33 33 33 34 35 34 32 31 33 35 35 35 35 35 37 39 41 38 32 29 29 28 26 24 22 21 20 20 19
20 21 20 19 19 19 19 19 19 19 18 18 17 17 17 16 16 16 16 16 16 15 15 15 15 15 14 14 13 14 14 13 12 13 13 14 13 10 13 16 14 19 28 30 30 32 30 26 25 26 27 28 29 30 30 32 33 33 33 34 35 35 34 32 31 33 35 36 36 35 36 37 40 41 36 32 32 32 29 27 25 22 21 21 20
18 18 17 17 17 17 17 17 17 17 17 17 17 17 17 17 17 16 16 15 15 15 14 14 14 13 13 13 13 13 14 14 14 14 14 14 14 13 13 14 15 19 22 24 25 25 25 26 26 25 26 26 26 27 28 29 30 31 31 34 35 35 35 34 32 31 33 35 36 36 36 36 38 40 38 34 34 35 32 29 28 26 24 22 22
15 15 14 14 14 15 15 15 15 16 16 16 16 17 17 18 18 18 17 17 17 16 16 16 15 15 15 15 15 15 15 15 15 16 16 15 16 16 14 10 10 12 12 17 21 19 22 28 28 24 21 22 22 23 25 27 28 29 30 32 34 34 34 35 34 32 32 33 36 37 36 36 36 37 38 36 35 36 34 31 30 29 28 26 24
13 13 13 13 13 14 15 15 15 16 16 16 17 17 17 18 18 19 19 19 20 19 19 19 18 18 18 18 18 19 18 17 17 17 17 17 17 18 16 11 8 7 7 10 13 13 16 19 20 22 21 21 23 23 24 26 27 28 30 32 34 34 33 34 34 34 33 32 35 37 37 37 36 35 36 36 36 36 35 33 31 30 30 29 27
13 13 14 15 15 16 17 17 18 18 19 19 19 19 20 20 20 20 20 20 20 21 21 21 21 21 21 21 21 21 21 20 20 19 19 19 19 19 18 17 13 8 5 7 9 11 15 17 18 22 24 23 23 24 25 27 27 27 29 32 33 33 33 33 34 35 34 32 33 36 38 37 36 36 35 36 37 37 37 36 35 33 32 31 30
13 14 15 16 17 18 19 20 20 21 22 22 23 23 23 23 23 23 23 23 23 22 22 22 22 23 23 23 23 24 23 23 23 23 22 21 21 21 21 20 18 14 9 7 10 15 21 25 23 22 25 28 28 30 31 31 31 32 32 34 36 36 36 36 36 36 36 34 32 33 36 38 37 37 36 37 38 38 38 38 38 36 34 34 33
12 13 14 16 17 18 19 20 21 22 22 23 24 24 24 25 25 26 26 26 27 27 26 26 25 24 24 25 25 25 25 25 26 26 25 24 23 23 22 22 21 21 19 13 10 15 21 28 33 32 31 34 35 34 34 33 32 32 33 35 37 38 39 41 41 40 39 37 34 32 33 37 38 38 37 38 39 39 40 40 39 38 37 37 36
12 13 14 16 17 18 20 21 21 22 23 23 24 24 24 24 25 25 25 26 26 27 28 28 28 28 27 28 27 25 25 26 27 26 27 26 25 25 24 24 24 24 25 19 12 17 26 31 39 42 38 37 38 36 34 34 31 30 31 32 34 35 37 39 41 41 41 40 38 35 33 35 38 39 38 38 39 41 42 42 41 41 40 40 40
13 15 17 18 20 21 21 22 23 23 24 24 25 25 25 26 26 25 26 26 26 27 27 28 28 28 29 30 30 28 26 27 27 26 25 26 26 27 26 26 26 25 25 23 17 18 26 28 33 41 41 38 39 38 35 34 32 30 30 30 30 32 34 36 39 40 40 40 40 38 35 34 37 39 39 39 39 41 43 44 44 43 42 42 41
15 17 19 20 21 22 23 23 24 24 25 25 25 26 26 27 27 27 26 27 27 28 29 29 29 29 30 31 31 30 29 30 30 27 26 25 25 27 28 27 28 28 25 25 23 21 24 26 27 35 39 37 38 40 36 34 35 33 32 31 30 31 33 34 37 39 39 40 40 40 38 36 36 38 40 40 40 42 43 45 46 46 45 44 43
16 18 20 22 23 23 24 24 24 24 25 25 25 25 26 26 27 27 27 27 27 28 29 30 30 29 30 31 32 31 30 32 33 31 28 27 25 26 28 27 28 30 28 26 26 25 26 28 26 28 33 34 37 41 37 36 38 36 34 35 33 31 32 33 35 37 38 39 39 39 40 38 37 37 39 40 41 43 44 44 44 44 46 45 43
18 20 22 23 24 24 25 25 25 24 24 25 25 25 24 24 25 26 27 27 27 27 28 28 29 29 29 30 31 30 29 31 33 32 29 29 28 27 29 29 28 29 30 28 28 29 29 29 28 27 29 31 36 40 39 38 39 38 36 37 35 33 32 32 33 35 36 38 39 40 40 40 39 38 39 40 41 42 43 44 43 41 42 44 42
21 23 24 25 25 26 26 25 25 24 24 24 25 24 24 24 24 25 26 26 26 27 27 27 27 27 28 29 31 30 29 30 32 31 30 29 30 29 30 31 29 29 30 30 30 31 31 31 32 30 28 30 32 36 38 37 37 38 37 36 35 34 33 32 32 33 35 36 38 40 40 40 40 39 39 40 42 42 42 44 44 40 39 42 43
22 24 25 26 26 27 27 26 26 25 25 25 25 24 25 25 26 26 26 26 26 27 27 27 27 27 27 29 30 29 28 30 31 31 30 30 31 31 32 32 31 29 30 31 30 31 32 33 34 32 29 29 29 32 34 34 34 36 37 36 34 32 31 32 33 33 33 34 37 39 40 41 41 40 40 40 41 41 41 43 44 42 40 40 42
22 24 26 27 27 27 27 27 26 26 26 26 25 25 26 26 27 27 27 28 28 28 28 29 29 29 29 29 30 29 28 28 30 31 30 30 30 31 31 31 31 30 30 32 31 30 31 32 33 32 30 28 27 29 31 30 31 34 35 32 31 31 30 31 33 33 32 33 35 37 39 40 41 41 41 40 40 41 41 42 43 43 42 40 41
23 25 26 27 28 28 28 27 27 27 27 26 25 26 26 27 27 28 28 29 30 31 32 32 31 30 30 30 29 28 27 28 28 29 29 29 30 31 31 30 30 31 31 32 31 30 30 30 31 31 30 28 26 27 28 26 26 30 31 27 28 32 32 29 31 32 31 33 34 35 37 39 40 40 41 41 41 42 43 43 44 44 44 41 39
25 26 26 27 28 28 28 28 28 27 27 26 25 25 25 26 27 28 28 28 29 31 32 33 32 30 29 29 27 25 24 24 25 25 26 26 28 30 32 30 30 31 32 32 32 30 28 26 28 29 28 26 25 24 24 24 23 28 31 27 26 33 34 31 32 34 32 32 33 34 36 37 38 40 40 42 43 43 43 44 45 46 45 43 41
26 27 28 28 29 29 29 29 29 28 27 26 25 24 24 24 25 26 27 27 27 27 28 30 31 29 26 25 24 22 21 22 23 24 24 25 25 27 30 30 30 30 31 30 28 26 24 22 24 25 24 25 27 24 24 26 26 27 28 27 26 31 31 27 29 34 32 28 30 34 36 36 37 39 40 42 44 43 42 44 47 47 46 44 44
27 28 29 29 29 29 30 30 30 29 28 27 26 26 24 22 22 23 24 24 24 22 22 25 27 26 23 22 22 22 24 25 25 24 24 25 26 27 28 29 29 29 30 29 27 25 23 21 23 25 24 26 29 26 25 27 27 25 26 27 26 28 26 19 19 26 26 22 24 31 34 33 34 38 40 41 43 42 42 44 46 46 46 45 46
28 29 29 30 30 30 30 30 30 30 30 29 27 27 25 22 20 20 20 21 22 20 20 21 23 23 23 22 21 22 24 24 24 24 25 25 25 25 26 27 26 27 28 29 29 29 27 26 26 29 29 29 29 27 23 22 22 22 24 27 26 26 26 20 18 24 26 20 19 26 32 32 31 34 38 41 42 41 41 43 44 44 46 47 47
28 29 29 30 30 30 30 31 31 31 31 30 28 26 25 23 20 20 20 20 21 21 21 21 22 21 22 22 22 22 22 22 22 23 24 24 24 24 24 24 24 24 24 26 27 29 31 31 31 33 35 33 32 32 28 24 24 25 24 25 26 25 26 25 25 29 31 24 20 24 30 31 29 31 37 41 40 39 40 41 42 43 45 47 47
28 29 29 30 30 30 30 30 31 32 31 30 28 26 24 22 20 20 20 21 21 22 21 21 21 20 19 21 23 23 23 22 22 22 23 24 25 25 25 25 25 24 24 25 26 27 29 30 31 35 38 35 35 39 40 36 35 34 30 27 26 25 26 29 31 35 35 30 27 24 24 29 27 27 35 40 38 37 39 40 40 41 43 45 44
27 28 28 29 29 29 30 30 31 32 31 29 27 26 24 22 21 20 21 21 21 22 22 20 19 19 19 21 23 25 25 24 23 24 26 27 28 29 29 28 28 27 27 28 28 28 29 29 31 35 37 35 35 38 39 37 35 35 33 33 33 33 33 33 34 37 36 34 32 24 21 28 29 26 32 39 36 36 38 38 38 39 41 43 42
26 27 27 28 29 29 29 30 31 32 32 29 27 26 24 22 21 21 21 21 21 22 22 21 20 19 18 20 23 24 25 25 26 27 28 28 30 32 32 32 32 32 30 30 29 29 30 31 32 35 36 36 35 36 37 36 35 34 34 34 35 36 34 30 29 33 34 34 34 29 25 30 29 25 31 36 33 34 37 36 36 37 39 41 42
26 27 28 28 29 29 30 30 30 32 32 29 26 26 24 22 22 22 22 23 23 23 23 23 22 20 18 20 23 26 28 28 28 29 29 29 31 33 34 35 35 33 33 32 31 31 31 32 34 35 37 37 37 37 37 36 35 34 33 31 30 29 26 19 17 25 32 33 33 31 29 31 32 29 30 32 31 31 34 35 36 37 37 39 41
27 27 28 30 30 30 30 30 30 31 32 29 26 25 24 21 20 22 24 26 27 27 26 26 25 22 21 23 25 28 31 31 31 32 31 31 34 35 34 34 34 33 34 35 35 35 35 35 35 37 37 36 35 35 35 34 33 31 30 31 32 29 24 18 16 21 29 33 33 31 27 29 34 32 27 26 26 30 34 35 35 36 36 36 39
27 28 28 30 31 31 30 30 29 29 31 30 26 25 24 21 20 22 25 27 29 29 27 28 28 27 28 30 30 30 32 33 34 35 33 32 34 35 34 34 33 33 35 37 37 37 36 36 37 38 38 37 36 35 34 34 33 31 32 35 36 32 28 26 25 20 17 20 28 30 27 27 31 29 24 18 14 19 30 35 35 35 35 36 37
Wind_Direction
236 249 248 247 259 262 256 254 254 242 232 266 281 261 292 308 292 285 291 294 297 300 300 298 289 277 269 264 261 260 260 261 261 262 262 264 267 269 271 272 273 272 270 266 260 252 256 262 257 252 257 260 262 262 264 269 261 255 267 266 268 296 308 323 331 317 315 301 298 325 324 322 325 326 318 285 267 297 302 294 275 258 260 259 247
256 261 255 255 266 265 251 247 251 237 233 268 267 267 298 298 282 281 290 295 296 297 297 297 293 286 279 273 269 264 261 259 259 260 262 264 268 269 268 270 272 272 273 271 267 260 253 257 256 256 262 261 257 256 260 259 254 252 257 269 279 288 297 315 329 311 299 285 273 295 321 316 306 304 302 293 292 305 318 319 304 282 263 252 241
271 269 267 267 271 273 256 241 256 264 258 263 269 284 288 278 274 282 293 296 293 294 294 294 293 290 286 282 277 272 267 264 264 266 266 268 271 272 269 270 271 271 273 273 270 263 257 258 258 262 266 263 259 258 263 260 250 249 253 262 273 279 279 284 288 285 289 290 282 285 301 303 296 291 285 288 288 282 291 302 305 300 280 255 232
267 268 277 277 267 266 259 248 267 272 257 248 265 283 277 270 275 287 297 295 291 293 292 292 292 290 289 286 282 280 277 272 272 275 275 276 277 276 275 275 274 274 274 273 271 266 264 262 256 256 255 252 250 251 260 263 255 254 263 263 263 275 272 263 267 263 267 286 293 292 288 283 284 283 275 280 283 274 283 281 280 300 291 273 258
275 279 282 282 265 258 260 260 266 262 251 248 261 273 267 263 270 283 293 289 288 293 293 293 293 293 293 291 288 286 285 282 282 284 285 285 283 281 279 279 279 277 277 274 273 272 271 267 257 251 247 246 248 249 255 266 263 259 270 272 264 268 263 261 266 256 252 269 282 289 282 271 271 273 268 276 281 272 283 286 274 284 289 287 288
281 283 275 268 261 260 264 267 269 267 266 267 270 272 266 264 271 275 277 278 286 295 297 296 296 297 297 296 295 292 290 288 287 289 290 290 286 283 281 281 281 280 279 278 275 273 272 269 263 260 255 252 253 254 255 265 272 267 271 272 264 263 263 261 258 239 248 263 263 268 270 266 258 260 263 271 281 272 277 292 279 279 283 277 280
257 256 251 246 244 245 252 261 267 268 269 272 275 275 270 268 269 267 267 273 284 295 301 302 300 301 303 302 302 300 296 292 290 291 293 292 288 285 282 281 282 281 280 279 276 272 270 270 267 264 261 260 259 258 257 261 270 275 277 272 263 262 265 262 254 255 263 251 248 256 256 256 247 246 256 262 273 273 275 282 278 280 277 269 269
258 252 246 241 241 241 243 246 250 257 261 262 262 262 260 260 261 263 266 272 281 290 300 305 304 305 307 306 306 305 302 299 295 294 292 290 287 285 283 282 282 281 281 280 278 274 271 269 267 265 263 264 263 261 259 257 260 269 274 273 263 259 268 263 248 253 262 235 236 245 241 249 247 240 247 255 260 266 271 270 269 273 270 273 273
39 25 351 306 281 266 258 253 251 254 258 257 251 248 248 249 251 255 257 265 278 286 293 299 302 303 304 305 306 306 306 304 301 297 293 288 286 285 285 284 282 281 281 280 278 277 274 271 268 267 266 266 265 263 261 257 255 256 257 267 267 260 271 270 239 232 243 234 233 234 231 239 243 241 238 242 252 258 266 268 267 268 265 271 274
41 37 33 29 20 1 336 309 288 274 268 263 254 250 249 245 247 250 254 265 274 282 289 293 297 298 301 304 304 304 304 303 301 298 295 291 288 287 286 285 284 283 282 280 278 278 276 274 272 270 268 268 268 266 263 259 256 252 249 256 268 264 266 270 249 239 244 246 237 228 230 237 241 245 243 240 251 257 262 267 268 268 264 260 259
51 50 51 50 48 45 40 33 20 1 332 304 280 271 266 259 257 257 262 268 272 280 286 290 295 298 302 304 303 302 303 301 300 300 298 296 293 290 289 288 286 285 284 281 280 279 278 277 275 273 271 269 268 268 265 262 259 255 250 249 256 262 262 262 261 258 256 254 247 239 238 241 244 248 250 250 252 256 261 264 264 263 261 255 250
57 56 57 57 57 56 53 51 47 41 30 16 3 346 328 311 295 281 279 278 281 285 288 295 300 301 303 305 306 307 307 305 303 304 303 301 297 294 291 290 288 287 285 284 282 281 280 279 279 277 274 271 269 268 267 265 261 257 252 249 248 250 257 259 259 263 263 257 254 252 251 248 249 253 260 260 254 255 259 261 261 257 255 252 248
53 52 54 55 55 53 50 49 47 44 42 40 33 25 16 5 352 335 319 307 300 298 302 309 311 312 311 310 311 310 309 310 309 310 308 305 301 298 296 292 289 288 286 285 283 282 281 280 281 279 277 274 272 270 268 266 263 259 253 250 249 246 249 255 255 256 258 260 260 259 256 252 251 257 264 263 255 253 255 256 256 255 253 250 247
55 53 53 53 51 50 48 48 50 48 50 49 42 38 34 28 23 13 1 345 332 326 328 329 327 325 321 316 318 319 316 314 313 314 315 314 311 307 301 296 295 295 291 287 285 283 282 282 281 280 279 277 275 273 271 268 265 262 256 251 250 248 246 248 252 251 250 256 260 259 253 248 251 257 257 258 255 250 250 251 252 253 253 250 247
59 58 58 57 56 56 55 55 55 54 53 50 44 41 36 34 33 27 20 11 359 353 354 355 340 327 329 321 326 337 325 319 322 322 320 317 313 313 311 309 311 308 299 294 292 288 286 285 284 283 282 280 278 276 274 272 269 265 261 256 251 248 247 244 245 251 251 248 248 252 249 243 252 256 252 252 252 249 248 250 251 252 251 250 248
62 61 61 61 60 60 58 56 55 52 50 49 46 42 38 35 34 34 30 21 13 7 6 7 356 341 336 318 325 338 307 327 334 320 317 315 308 312 315 313 314 313 308 308 306 303 300 296 293 291 288 286 283 281 278 275 273 269 265 261 255 249 247 244 241 245 253 251 244 243 241 239 246 250 249 250 249 247 249 250 251 252 250 248 247
64 63 62 61 60 60 58 56 55 52 49 49 47 43 39 35 32 33 34 29 21 15 12 11 6 354 335 310 316 326 271 335 336 318 313 312 304 307 311 310 312 312 311 310 310 309 307 305 302 299 296 293 289 286 283 279 276 273 268 264 261 254 249 247 244 242 245 250 249 244 239 235 237 246 250 248 247 246 247 250 251 250 248 247 246
65 63 61 59 58 57 55 54 53 51 49 48 47 42 38 36 32 30 31 30 23 24 21 12 12 12 360 335 311 304 298 324 335 312 310 308 300 302 304 303 306 306 307 307 307 306 306 306 305 303 302 300 297 293 290 286 281 277 273 269 265 260 254 250 248 246 244 245 247 249 249 245 240 244 248 246 247 247 247 250 250 248 246 245 245
66 64 62 60 59 58 57 56 55 54 52 50 49 46 43 40 35 31 30 26 21 26 23 14 14 14 5 355 339 328 317 315 308 298 316 309 297 301 303 304 306 305 305 306 306 305 305 305 305 304 304 303 302 299 296 293 288 283 278 274 270 265 260 256 252 250 249 246 245 247 252 252 246 245 244 244 248 247 248 250 248 247 246 243 244
68 67 65 64 63 63 62 62 60 58 56 54 52 49 46 43 38 35 31 27 25 26 24 20 17 7 357 353 350 347 340 327 305 292 297 301 308 310 310 313 310 305 305 305 305 305 305 305 304 304 304 302 302 301 300 298 295 291 285 280 274 270 265 261 257 254 252 249 245 243 245 249 250 248 240 237 247 251 250 250 246 246 246 244 244
68 67 66 64 64 63 63 63 62 61 59 58 55 52 49 46 42 39 36 34 32 26 22 21 20 12 4 358 352 347 344 342 332 318 298 285 306 315 318 319 314 308 306 306 305 305 304 304 303 302 300 299 299 298 298 298 297 296 294 289 282 274 269 264 261 258 254 251 246 242 242 244 249 251 241 233 241 248 248 249 246 244 246 244 243
68 66 65 63 62 61 61 61 62 61 60 59 57 54 52 49 47 45 44 42 38 32 28 23 18 13 8 5 3 358 349 344 341 334 322 290 284 300 313 318 316 311 310 309 307 306 305 304 302 301 299 298 297 297 296 295 295 295 296 295 290 282 274 268 263 261 258 254 249 244 242 241 243 249 249 239 236 238 239 245 247 245 246 246 244
66 65 63 61 59 58 58 59 59 59 58 57 56 54 52 50 50 48 47 46 43 39 35 28 24 18 12 8 3 2 354 330 319 322 318 295 290 297 305 307 305 302 306 308 307 306 305 304 302 302 301 299 298 297 295 294 294 293 293 294 294 291 282 273 267 262 260 257 253 248 245 242 240 243 248 244 236 232 232 238 245 247 248 249 246
63 61 60 57 57 56 55 55 55 55 54 54 53 52 50 47 46 44 43 42 40 38 35 31 27 21 17 13 4 358 350 338 326 319 309 298 296 292 297 302 299 297 303 307 306 304 303 303 304 304 304 303 301 300 298 296 295 294 293 293 294 294 290 282 273 266 262 259 256 253 249 244 241 241 246 245 238 235 236 238 242 247 249 250 249
58 56 54 52 51 50 49 48 47 46 46 46 45 42 40 37 36 34 33 32 30 28 27 25 22 16 12 8 2 359 353 346 337 326 317 309 300 291 294 300 295 296 304 305 305 306 305 304 305 306 305 305 304 303 299 297 296 295 295 294 294 294 293 290 281 271 265 261 259 256 252 248 243 241 244 246 240 235 238 240 240 244 247 250 251
55 53 50 48 47 44 43 41 38 36 34 32 31 28 26 23 22 20 18 18 16 13 11 9 7 3 360 355 350 348 347 344 338 331 325 314 302 294 297 300 292 291 299 301 300 302 303 305 307 306 305 305 306 306 304 302 300 298 297 295 293 294 293 292 289 280 270 264 260 258 255 252 247 243 243 246 241 235 234 236 238 242 246 249 252
54 50 46 43 40 38 35 31 28 25 21 19 18 15 13 9 7 7 5 2 1 359 357 354 351 347 344 341 337 334 334 336 333 331 328 319 308 300 296 298 295 290 293 297 295 291 293 302 307 307 307 308 307 308 307 305 304 302 301 298 296 295 295 293 291 287 278 269 263 259 257 255 252 246 242 242 242 238 234 233 234 237 242 248 251
50 45 38 33 30 26 22 19 17 14 11 10 7 5 3 359 357 356 354 352 351 350 347 345 343 339 337 333 329 327 327 327 324 323 323 319 315 309 298 283 280 297 306 298 296 295 294 300 306 306 306 307 306 305 303 301 301 301 300 299 299 298 298 296 294 290 284 276 268 263 260 258 255 250 242 239 240 240 237 235 234 236 241 245 246
38 32 25 20 16 13 11 8 6 5 3 1 359 357 355 353 352 350 348 345 343 342 341 339 337 335 332 330 327 324 323 322 319 317 317 314 314 313 304 289 275 275 300 302 298 302 301 296 295 300 303 304 303 302 299 297 296 296 295 296 298 299 298 298 297 294 288 281 273 267 263 259 257 253 245 239 239 240 239 239 238 240 241 240 239
24 18 13 8 5 4 2 0 359 357 357 355 354 352 350 349 349 348 346 343 340 339 338 336 334 332 329 327 326 324 323 321 316 315 314 312 311 309 307 300 285 266 257 279 291 290 297 299 293 293 299 300 298 298 297 295 294 291 288 288 290 292 294 295 296 296 293 286 278 270 265 260 257 255 249 241 239 240 240 240 240 241 241 239 239
12 5 1 357 355 355 354 353 352 351 352 351 349 347 346 345 344 343 343 342 339 338 338 338 336 334 330 327 326 325 325 321 317 316 315 313 312 308 306 302 293 279 266 264 276 279 286 295 294 293 296 298 299 298 297 298 299 296 291 287 285 286 287 287 289 291 292 290 284 276 268 262 257 255 252 246 240 239 240 240 240 241 241 241 243
0 356 352 350 349 349 349 348 347 347 347 347 344 343 342 340 340 339 338 338 336 334 334 334 335 334 332 329 326 326 325 321 318 317 316 315 313 310 306 300 295 289 277 265 264 276 278 284 290 293 296 298 299 298 296 297 300 300 297 293 289 286 285 284 284 285 287 288 286 281 272 265 259 255 252 249 244 240 239 240 241 241 242 244 246
353 351 349 348 348 347 346 345 344 344 344 343 342 340 339 338 338 338 337 335 333 331 330 329 329 330 328 325 324 325 325 321 318 316 314 314 312 309 307 302 295 291 284 271 266 277 280 280 285 290 295 297 297 296 297 297 297 299 299 296 292 287 284 283 283 282 283 285 285 283 276 268 263 257 253 250 247 244 241 241 242 242 243 245 247
350 349 347 347 346 345 344 344 343 343 343 342 341 340 339 338 337 337 336 335 332 330 329 327 326 326 324 321 320 322 323 320 316 315 313 311 309 305 303 301 295 292 288 279 273 278 282 281 281 286 291 294 294 294 296 297 297 298 296 294 293 290 286 284 283 282 282 282 283 283 280 272 265 260 255 250 248 247 244 242 243 243 243 245 246
345 345 344 344 344 343 343 343 342 343 342 341 340 340 339 338 336 335 334 332 331 328 326 325 324 324 321 318 317 318 319 316 313 313 313 311 309 304 300 297 294 292 291 285 278 277 282 285 282 281 286 289 290 292 294 296 297 297 294 292 291 289 286 284 282 282 282 282 281 281 281 276 269 262 257 251 248 246 246 246 245 244 243 243 244
341 342 342 342 343 342 342 342 342 342 341 339 339 339 338 337 334 333 331 329 327 324 322 320 319 319 316 313 313 314 314 311 308 309 310 309 307 304 300 297 293 291 290 287 281 278 280 285 284 279 280 283 285 288 292 293 294 294 293 293 291 288 286 284 282 281 281 281 280 279 278 276 273 266 259 254 250 246 246 247 246 244 243 242 242
339 339 340 341 341 341 341 341 341 340 339 338 338 337 337 336 333 330 329 326 324 321 318 315 314 313 310 308 307 309 309 306 304 304 305 305 303 301 298 296 294 293 290 287 282 279 278 280 283 283 280 279 280 283 287 290 292 293 292 291 290 288 286 283 280 280 279 278 277 277 276 275 273 269 262 256 251 248 246 246 246 244 243 242 240
334 334 335 336 337 337 337 337 337 336 336 336 336 336 335 333 332 330 327 324 320 317 314 312 310 308 305 304 303 304 304 301 300 300 300 299 298 296 294 294 294 293 291 288 284 281 278 278 280 283 281 278 277 278 281 284 287 290 290 290 289 287 284 282 280 279 279 277 276 275 274 274 272 270 266 259 253 248 246 245 245 244 242 241 240
329 330 330 332 333 333 333 333 333 333 333 334 334 334 334 333 331 328 325 322 318 314 312 310 308 307 305 303 302 302 301 299 297 298 298 297 295 292 291 292 292 292 289 288 286 283 280 279 279 280 279 278 276 275 278 281 282 282 283 286 288 286 283 279 278 279 279 278 277 275 274 273 271 270 267 263 255 248 245 245 243 242 242 241 239
327 328 329 329 329 329 330 330 330 330 331 332 332 334 334 332 330 326 322 319 316 314 312 311 310 309 308 306 305 304 302 299 296 295 295 294 293 291 290 290 290 289 287 287 287 284 281 280 280 280 280 279 275 274 277 277 275 275 276 277 281 284 283 280 279 279 277 275 275 275 274 272 270 267 265 263 258 251 245 244 241 241 242 241 238
327 327 328 328 328 327 328 328 328 329 329 330 332 335 334 330 326 323 319 317 315 314 312 312 311 311 311 310 308 306 304 300 297 295 293 292 290 289 289 290 288 286 284 283 283 283 282 281 281 283 283 280 275 272 272 268 264 270 276 276 274 278 282 282 279 277 273 271 270 270 271 270 268 267 264 261 260 255 247 243 241 240 240 238 237
326 326 326 326 326 326 327 326 326 327 328 329 332 334 333 328 324 321 318 315 314 311 310 311 311 312 312 310 307 306 304 301 299 297 295 293 290 288 288 289 288 285 283 281 279 278 279 279 280 282 282 279 275 270 267 266 266 268 273 274 273 276 281 282 280 279 273 267 264 263 266 267 265 264 262 259 260 257 249 244 241 239 238 236 236
322 323 324 324 324 325 325 325 325 325 326 328 332 333 332 329 324 318 314 312 310 308 306 308 309 310 310 307 306 305 304 303 301 298 295 293 291 288 287 286 284 283 283 284 284 283 282 280 279 278 276 276 276 273 268 267 268 267 270 272 272 275 276 275 280 283 277 267 257 256 262 266 262 260 259 259 259 256 250 247 243 239 237 236 236
319 320 321 321 322 323 322 322 322 323 323 326 331 333 332 330 323 314 308 306 305 304 303 304 304 305 305 305 303 302 302 302 300 298 296 294 292 289 288 287 286 283 282 282 284 286 286 285 284 281 278 279 282 282 279 274 274 273 272 270 268 269 271 269 268 273 276 272 257 251 259 265 260 256 259 260 260 256 253 252 247 241 238 237 235
315 316 317 318 319 319 319 319 319 320 322 326 331 334 331 328 322 313 306 303 301 300 300 301 301 300 301 301 300 299 298 298 298 296 294 293 292 290 290 291 290 287 285 283 282 282 282 281 280 278 277 280 283 284 284 287 291 290 282 273 267 265 266 266 266 269 274 272 256 248 257 263 257 251 257 262 262 257 255 255 251 245 241 238 235
312 313 314 315 316 316 316 317 317 317 320 326 331 333 329 325 320 312 306 301 299 297 297 297 297 296 295 297 297 296 295 295 295 294 292 291 291 291 291 292 291 291 290 288 285 283 280 277 276 276 278 279 280 281 282 285 287 284 280 278 277 273 269 269 270 272 274 271 260 251 257 264 257 245 252 262 262 258 258 258 254 249 244 239 236
310 311 312 313 313 313 314 315 315 316 320 327 331 331 328 324 318 311 306 301 298 296 295 294 294 294 292 292 292 292 292 292 292 292 291 291 291 291 291 290 290 289 289 288 286 283 280 276 274 275 278 280 280 281 283 283 280 276 274 274 275 275 274 274 272 270 270 268 261 251 254 265 258 242 249 260 260 257 260 259 255 252 247 241 237
310 311 311 311 311 312 313 315 316 316 319 326 331 329 326 323 317 312 307 303 299 296 294 293 293 292 291 289 290 291 291 291 291 290 290 290 290 289 288 287 286 285 284 286 286 282 280 280 278 277 279 281 282 282 282 282 281 280 281 278 272 268 266 265 265 263 263 263 258 247 248 263 260 244 249 258 256 254 258 256 254 254 250 244 239
310 311 311 311 311 312 313 315 316 316 318 326 330 327 324 321 316 311 307 303 299 295 293 293 293 292 290 288 289 291 291 290 289 289 290 289 288 286 284 284 284 282 281 283 283 280 280 281 280 280 281 283 284 284 283 282 282 283 285 284 278 273 269 262 258 257 257 257 254 245 243 255 258 250 250 255 253 251 254 254 253 254 251 246 243
310 310 310 310 310 311 312 314 316 316 317 324 328 324 322 321 314 308 306 304 300 297 295 294 292 290 288 288 288 288 289 289 289 290 290 290 289 287 285 285 283 279 279 281 280 279 279 278 277 277 277 279 281 283 283 283 284 284 284 283 283 285 283 275 271 268 262 256 250 243 237 246 253 251 248 252 252 248 249 252 252 250 247 244 242
308 308 308 308 307 309 311 312 314 315 317 322 325 323 322 320 311 305 304 302 299 297 295 294 293 291 289 291 291 289 288 290 291 291 291 290 289 286 285 283 279 277 280 281 280 279 278 276 274 273 272 273 275 277 277 278 279 278 276 276 279 281 280 276 275 276 271 261 251 239 232 242 251 247 240 243 254 249 245 246 247 245 242 239 237